Regional Weather Roundup
Issued by NWS

Home | Current Version | Previous Version | Text Only | Print | Product List | Glossary Off
Versions: 1 2 3 4 5 6 7 8 9 10 11 12 13 14 15 16 17 18 19 20 21 22 23 24 25 26 27 28 29 30 31 32 33 34 35 36 37 38 39 40 41 42 43 44 45 46 47 48 49 50

380
ASUS45 KTFX 261810
RWRMT
MONTANA REGIONAL WEATHER ROUNDUP
NATIONAL WEATHER SERVICE GREAT FALLS MT
1200 PM MDT FRI AUG 26 2016

NOTE: "FAIR" INDICATES FEW OR NO CLOUDS BELOW 12000 FEET WITH NO
SIGNIFICANT WEATHER AND/OR OBSTRUCTIONS TO VISIBILITY.

MTZ001>007-043-261900-
WEST OF THE DIVIDE

CITY           SKY/WX    TMP DP  RH WIND       PRES   REMARKS
KALISPELL      MOSUNNY   68  43  40 N10       30.06F
MISSOULA       MOSUNNY   67  39  35 CALM      30.08F
BUTTE            N/A     62  31  31 MISG      30.13F
MULLAN PASS    MOSUNNY   59  35  40 VRB5      30.15F
DEER LODGE       N/A     63  37  39 NE6       30.12F
EUREKA           N/A     66  45  45 CALM      30.06F
HAMILTON         N/A     63  37  39 N6        30.08F
LIBBY            N/A     70  43  37 NE5       30.04F
PLAINS           N/A     69  40  34 W1        30.05F
RONAN            N/A     67  44  43 CALM      30.11F
$$

MTZ008-052>055-261900-
SOUTHWEST MONTANA

CITY           SKY/WX    TMP DP  RH WIND       PRES   REMARKS
BOZEMAN        CLOUDY    62  37  39 VRB3      30.11F
DILLON         SUNNY     62  36  37 VRB3      30.11F
W YELLOWSTONE  CLOUDY    59  34  38 NE8       30.17F
ENNIS          MOSUNNY   59  32  36 CALM      30.17F
THREE FORKS      N/A     64   8  11 CALM      30.09F
TWIN BRIDGES     N/A     64  32  30 W6        30.09F
$$

MTZ009-010-012-014-046-048-049-054-261900-
EAST SLOPES AND CENTRAL MONTANA

CITY           SKY/WX    TMP DP  RH WIND       PRES   REMARKS
CUT BANK       MOSUNNY   62  43  49 N5        30.08F
GREAT FALLS    CLOUDY    62  42  47 N3        30.10F
MALMSTROM AFB  PTSUNNY   60  45  57 NE3       30.10F
HELENA         SUNNY     66  42  41 VRB6      30.09F
CHOTEAU          N/A     64  43  45 CALM      30.11F
CONRAD           N/A     63  49  60 SW2       30.11F
$$

MTZ011-013-016-021-045-047-050-051-261900-
NORTH CENTRAL MONTANA

CITY           SKY/WX    TMP DP  RH WIND       PRES   REMARKS
HAVRE          PTSUNNY   63  47  55 W6        30.07F
LEWISTOWN      CLOUDY    59  44  57 NW5       30.12F
N BAR RANCH    CLOUDY    61  41  48 NW9       30.13F
CHINOOK          N/A     63  48  59 W12       30.06F
$$

MTZ017>020-022>027-061-062-261900-
NORTHEAST MONTANA

CITY           SKY/WX    TMP DP  RH WIND       PRES   REMARKS
GLASGOW        SUNNY     66  47  50 W13G21    30.02F
JORDAN           N/A     66  47  50 N9        30.06F
SIDNEY         MOSUNNY   74  43  32 E5        30.00F
WOLF POINT     PTSUNNY   68  49  50 W10       30.03F
POPLAR           N/A     68  45  42 W7        30.02F
SCOBEY           N/A     65  50  58 W8        29.99F
$$

MTZ028>42-056>058-261900-
SOUTHCENTRAL AND SOUTHEAST MONTANA

CITY           SKY/WX    TMP DP  RH WIND       PRES   REMARKS
BAKER          CLOUDY    60  45  57 S17       30.08F
BILLINGS       MOSUNNY   68  39  34 E5        30.08F
LIVINGSTON     SUNNY     66  36  32 VRB3      30.09F
MILES CITY     SUNNY     74  37  26 W5        30.03F
EKALAKA          N/A     62  50  65 E3        30.06F
FORSYTH          N/A     70  43  37 W7        30.04F
LAUREL           N/A     67  39  35 NE1       30.07F
ROUNDUP          N/A     68  41  37 NW5       29.99F
$$

REGIONAL REPORTS...DAKOTAS

CITY           SKY/WX    TMP DP  RH WIND       PRES   REMARKS
WILLISTON      MOSUNNY   74  44  34 S8        30.01F
MINOT          MOSUNNY   75  43  31 SW9       30.01F
DICKINSON      CLOUDY    71  39  31 SW14      30.03F
CROSBY           N/A     66  46  48 S8        30.02F
WATFORD CITY     N/A     75  37  25 S7G17     30.01F
BISMARCK       CLOUDY    68  52  56 S10       30.10F
GRAND FORKS    PTSUNNY   76  53  44 S10       30.04F
FARGO          SUNNY     75  48  38 SW12      30.08F
BUFFALO SD       N/A     56  50  80 NW35G45   30.01S SQUALL
RAPID CITY     CLOUDY    58  52  80 S8        30.12F
$$

REGIONAL REPORTS...WYOMING/IDAHO/WASHINGTON

CITY           SKY/WX    TMP DP  RH WIND       PRES   REMARKS
GILLETTE       SUNNY     66  45  46 MISG      30.09F
SHERIDAN       PTSUNNY   71  44  37 VRB3      30.10F
BUFFALO WY     PTSUNNY   63  39  41 N12G26    30.13F
CODY           MOSUNNY   57  43  58 NE5       30.13F
YELLOWSTONE LA   N/A     54  36  50 VRB3      30.24F
IDAHO FALLS    MOSUNNY   68  34  28 S7        30.07F
SALMON         SUNNY     64  36  34 CALM      30.06F
BOISE          SUNNY     75  32  20 CALM      30.00F
SPOKANE        MOSUNNY   75  42  30 E3        30.00F
$$

REGIONAL REPORTS...ALBERTA

CITY           SKY/WX    TMP DP  RH WIND       PRES   REMARKS
EDMONTON       SUNNY     64  54  68 S6        29.95F
CALGARY        PTSUNNY   63  46  55 SE3       30.02F
LETHBRIDGE     MOSUNNY   64  46  52 VRB13     30.05F
MEDICINE HAT   PTSUNNY   63  54  72 S8        30.03F
WATERTON GATE    N/A     64  39  39 SW6         N/A
MILK RIVER       N/A     64  46  52 N5          N/A
ONEFOUR          N/A     63  46  55 NW9         N/A
$$

REGIONAL REPORTS...SASKATCHEWAN

CITY           SKY/WX    TMP DP  RH WIND       PRES   REMARKS
SWIFT CURRENT  PTSUNNY   55  52  88 W17G23    29.99F
REGINA         PTSUNNY   66  54  63 SW14      29.94F
SASKATOON      LGT RAIN  59  57  94 NW10      29.95S
CYPRESS HILLS    N/A     54  46  76 NW5         N/A
VAL MARIE        N/A     63  46  55 NW14G20     N/A
ROCKGLEN         N/A     63  50  63 W12         N/A
ASSINIBOIA       N/A     64  50  59 SW6         N/A
$$




USA.gov is the U.S. government's official web portal to all federal, state and local government web resources and services.